Regional Weather Roundup
Issued by NWS

Home | Current Version | Previous Version | Text Only | Print | Product List | Glossary On
Versions: 1 2 3 4 5 6 7 8 9 10 11 12 13 14 15 16 17 18 19 20 21 22 23 24 25 26 27 28 29 30 31 32 33 34 35 36 37 38 39 40 41 42 43 44 45 46 47 48 49 50
000
ASUS42 KFFC 212310
RWRGA
WEATHER ROUNDUP FOR GEORGIA
NATIONAL WEATHER SERVICE PEACHTREE CITY GA
700 PM EDT SAT APR 21 2018

NOTE: "FAIR" INDICATES FEW OR NO CLOUDS BELOW 12,000 FEET WITH NO
SIGNIFICANT WEATHER AND/OR OBSTRUCTIONS TO VISIBILITY.

* = USE WITH CAUTION. THE STATIONS MARKED WITH AN ASTERISK MAY NOT
REPORT WEATHER SUCH AS PRECIPITATION, FOG, OR THUNDER AND ARE NOT
QUALITY CONTROLLED BY NWS.

THE REMARK "TC" DENOTES TEMPERATURE READING IN DEGREES CELSIUS.

GAZ001>058-220000-
NORTH GEORGIA

CITY           SKY/WX    TMP DP  RH WIND       PRES   REMARKS
ATLANTA        PTSUNNY   69  43  38 E10       30.24S
ATHENS         FAIR      69  40  34 SE3       30.26S
CHAMBLEE       CLOUDY    68  40  35 VRB6      30.24S
PEACHTREE CITY FAIR      70  42  36 SE7       30.24R
ROME           FAIR      73  41  31 SE9       30.19F
WEST ATLANTA   CLOUDY    70  42  36 SE7       30.23S
GAINESVILLE    FAIR      67  36  31 SE9       30.28S
CARTERSVILLE   PTSUNNY   70  42  36 SE6       30.22S


CITY           SKY/WX    TMP DP  RH WIND       PRES   REMARKS
DALTON*        FAIR      72  39  30 S8        30.22F
LAWRENCEVILLE* PTSUNNY   68  41  37 E8        30.25S
MARIETTA       PTSUNNY   69  40  35 E13       30.23S
KENNESAW*      CLOUDY    70  41  34 SE8       30.24R
CANTON*        FAIR      72  27  18 E8        30.25F
BLAIRSVILLE*   FAIR      65  29  25 E13       30.26S
$$

GAZ059>098-102>109-220000-
CENTRAL GEORGIA

CITY           SKY/WX    TMP DP  RH WIND       PRES   REMARKS
AUGUSTA-BUSH   CLOUDY    71  50  47 SE7       30.26S
AUGUSTA-DANIEL CLOUDY    73  45  36 SE6       30.27S
COLUMBUS       CLOUDY    72  48  42 SE13      30.20R
MACON          CLOUDY    70  43  37 SE8       30.24S
ROBINS AFB     CLOUDY    69  46  43 SE6       30.23F


CITY           SKY/WX    TMP DP  RH WIND       PRES   REMARKS
LAGRANGE*      PTSUNNY   73  42  32 SE9       30.21S
SYLVANIA*      PTSUNNY   68  55  64 SE6       30.29R
MILLEDGEVILLE* CLOUDY    72  41  33 CALM      30.26S
$$

GAZ099>101-110>166-220000-
SOUTH GEORGIA

CITY           SKY/WX    TMP DP  RH WIND       PRES   REMARKS
SAVANNAH       CLOUDY    67  53  61 E13       30.28S
VALDOSTA       CLOUDY    68  60  75 E10G18    30.20R
ALMA           LGT RAIN  65  60  84 VRB6      30.24S
ST SIMONS      CLOUDY    67  61  81 NE10      30.24R
FT STEWART     CLOUDY    66  54  65 E7        30.25S
ALBANY         CLOUDY    69  59  70 E16       30.22S
HUNTER AFB     PTSUNNY   66  53  63 NE10      30.25S
MOODY AFB      CLOUDY    68  61  76 E8        30.20R
BRUNSWICK      CLOUDY    64  59  82 NE10      30.25S


CITY           SKY/WX    TMP DP  RH WIND       PRES   REMARKS
BAINBRIDGE*      N/A     73  64  73 E18       30.16R
MOULTRIE*      PTSUNNY   70  59  68 E5        30.21S
VIDALIA*       CLOUDY    70  57  64 E7        30.26S
WAYCROSS*      CLOUDY    65  62  90 E13       30.24S
DOUGLAS*       CLOUDY    64  59  82 E6        30.26R
$$



USA.gov is the U.S. government's official web portal to all federal, state and local government web resources and services.